Location: Claflin County Park
(44.8478°N, 87.5507°W)
Time: 06:59:56
(UTC+00:00)

USA 234 - Pass Details

Date: 14 March 2026
Orbit: 1102 x 1106 km, 123.0° (Epoch: 4 January)

Event Time Altitude Azimuth Distance (km) Brightness Sun altitude
Exits shadow 00:56:13 - 67° (ENE) 3,012 5.0 -11.8°
Reaches altitude 10° 00:56:21 10° 66° (ENE) 2,966 5.0 -11.9°
Maximum altitude 01:01:57 32° 7° (N) 1,809 4.4 -12.9°
Drops below altitude 10° 01:07:34 10° 308° (NW) 2,970 6.5 -13.8°
Sets 01:10:20 0° 299° (WNW) 3,929 7.7 -14.3°
